Regional Weather Roundup
Issued by NWS

Home | Current Version | Previous Version | Text Only | Print | Product List | Glossary Off
Versions: 1 2 3 4 5 6 7 8 9 10 11 12 13 14 15 16 17 18 19 20 21 22 23 24 25 26 27 28 29 30 31 32 33 34 35 36 37 38 39 40 41 42 43 44 45 46 47 48 49 50

000
ASUS43 KMPX 160610
RWRMN
WEATHER ROUNDUP FOR MINNESOTA
NATIONAL WEATHER SERVICE TWIN CITIES/CHANHASSEN MN
100 AM CDT WED APR 16 2014


NOTE: "FAIR" INDICATES FEW OR NO CLOUDS BELOW 12,000 FEET WITH NO
SIGNIFICANT WEATHER AND/OR OBSTRUCTIONS TO VISIBILITY. N/A MEANS
CURRENT SKY AND/OR WEATHER CONDITIONS ARE NOT AVAILABLE.

MNZ060>063-068>070-160700-
   Twin Cities Metro

CITY           SKY/WX    TMP DP  RH WIND       PRES   REMARKS
TWIN CITIES    CLOUDY    34  15  46 SE13      30.05F WCI  25
6HR MIN TEMP:  33; 6HR MAX TEMP:  35;

ST PAUL        CLOUDY    34  17  50 E10       30.07F WCI  26
CRYSTAL        CLOUDY    35  14  42 E10       30.04F WCI  27
BLAINE         CLOUDY    36  16  44 E6        30.05F
EDEN PRAIRIE   CLOUDY    35  15  44 E13       30.03S WCI  26
6HR MIN TEMP:  33; 6HR MAX TEMP:  36;

LAKEVILLE      CLOUDY    30  19  64 E9        30.04S WCI  22
SOUTH ST PAUL  CLOUDY    37  17  43 SE7       30.06F
LAKE ELMO      CLOUDY    34  18  51 E6        30.07F WCI  29
$$
MNZ001>005-007-008-013>017-022>024-027-028-160700-
   Northwest Minnesota

CITY           SKY/WX    TMP DP  RH WIND       PRES   REMARKS
BEMIDJI        CLOUDY    26   4  39 E7        30.02S WCI  18
HALLOCK        CLOUDY    27  12  54 E14       30.05S WCI  15
ROSEAU         FAIR      23  12  63 E8        30.08R WCI  14
WARROAD        FAIR      18   9  68 E6        30.09R WCI   9
THIEF RVR FALL CLOUDY    27   9  46 E13       30.03S WCI  16
CROOKSTON      CLOUDY    28  10  47 E10       30.02S WCI  19
FOSSTON        CLOUDY    27   9  46 E8        30.01S WCI  18
DETROIT LAKES  FAIR      32  10  40 SE13      29.98S WCI  22
MOORHEAD       CLOUDY    32  19  59 E16G24    29.98S WCI  21
PARK RAPIDS    CLOUDY    28   7  41 E8        30.00S WCI  20
$$
MNZ006-009>011-018-025>026-160700-
   North Central Minnesota

CITY           SKY/WX    TMP DP  RH WIND       PRES   REMARKS
BAUDETTE       FAIR      20   8  60 E7        30.09S WCI  11
FLAG ISLAND    FAIR      14   7  73 CALM      30.10S
INTL FALLS     FAIR      15   8  73 CALM      30.10S
6HR MIN TEMP:  15; 6HR MAX TEMP:  28;

WASKISH        FAIR      21   9  58 E7        30.07S WCI  13
BIG FORK       FAIR      21   7  53 E5        30.08R WCI  15
LONGVILLE      CLOUDY    25   9  50 CALM      30.04F
GRAND RAPIDS   MOCLDY    25   1  36 E3        30.05F
CRANE LAKE     FAIR       7   1  78 CALM      30.14R
ORR            FAIR      16   5  62 CALM      30.07S
COOK           FAIR      18   5  57 CALM      30.10R
$$
MNZ012-019>021-037-160700-
   Northeast Minnesota

CITY           SKY/WX    TMP DP  RH WIND       PRES   REMARKS
DULUTH         FAIR      21   9  59 SE3       30.08S
6HR MIN TEMP:  21; 6HR MAX TEMP:  30;

ELY            FAIR      10   7  85 CALM      30.10S
HIBBING        FAIR      19  12  74 CALM      30.08R
EVELETH        FAIR      18  12  79 NE3       30.09S
DULUTH HARBOR  FAIR      28  12  50 CALM      30.13S
TWO HARBORS    FAIR      18   9  68 CALM      30.09S
SILVER BAY     FAIR      12  10  92 CALM      30.10S
GRAND MARAIS     N/A     21   5  50 N5        30.16R WCI  15
G MARAIS ARPRT FAIR       7  -2  66 N5        30.09R WCI  -2
$$
MNZ029>031-032-039>041-046>048-054>057-064-160700-
   West Central Minnesota

CITY           SKY/WX    TMP DP  RH WIND       PRES   REMARKS
FERGUS FALLS   FLURRIES  28  18  64 E18G24    29.94S WCI  16
WHEATON        CLOUDY    36  18  48 E22G29    29.91F
MORRIS         FAIR      34  10  37 E24       29.90F WCI  21
ALEXANDRIA     LGT SNOW  28  21  74 E14G25    29.97S VSB 1   WCI  17
ELBOW LAKE     CLOUDY    30  20  65 E24G30    29.94S WCI  16
WADENA         CLOUDY    28  10  47 E12       29.99S WCI  18
GLENWOOD       FAIR      28  21  74 E21G26    29.97S HAZE    WCI  15
APPLETON       FAIR      36  16  44 E20G26    29.89F
BENSON         MOCLDY    34  14  44 SE15      29.93S WCI  24
ORTONVILLE     FAIR      34  12  40 E23       29.86F WCI  22
MADISON        FAIR      37  21  52 E21       29.86F
WILLMAR        FAIR      34  14  44 E17G26    29.95F WCI  23
$$
MNZ033>034-036-042>043-049>051-058-059-160700-
   Central Minnesota

CITY           SKY/WX    TMP DP  RH WIND       PRES   REMARKS
ST CLOUD       CLOUDY    33  12  41 E10       30.03S WCI  25
6HR MIN TEMP:  33; 6HR MAX TEMP:  35;

SAUK CENTRE    CLOUDY    31  15  51 E12       29.99F WCI  21
PAYNESVILLE    CLOUDY    32  15  49 SE16G23   30.00S WCI  21
AITKIN         MOCLDY    28   7  40 CALM      30.04S
PINE RIVER     CLOUDY    27  10  50 E7        30.06F WCI  19
BRAINERD       CLOUDY    32   2  27 VRB5      30.04S WCI  27
STAPLES        CLOUDY    28   5  37 E5        30.01S WCI  23
LONG PRAIRIE   CLOUDY    30  12  47 E10       30.00S WCI  21
LITTLE FALLS   FAIR      32   9  37 E6        30.03S WCI  26
LITCHFIELD     CLOUDY    34  16  47 E16G23    29.99F WCI  23
BUFFALO        CLOUDY    34  13  43 E8        30.04S WCI  27
MAPLE LAKE     CLOUDY    33  16  48 E7        30.03S WCI  27
$$
MNZ037-044-045-052-053-160700-
   East Central Minnesota

CITY           SKY/WX    TMP DP  RH WIND       PRES   REMARKS
PRINCETON      CLOUDY    34  10  37 E6        30.06R WCI  29
MORA           CLOUDY    30  12  47 E8        30.08S WCI  23
CAMBRIDGE      CLOUDY    34  16  47 E6        30.05S WCI  29
RUSH CITY      CLOUDY    30  10  44 E3        30.08S
MOOSE LAKE     CLOUDY    23  14  68 CALM      30.07S
HINCKLEY       CLOUDY    28  14  54 E3        30.08S
CLOQUET        FAIR      23   9  54 E3        30.08S
MCGREGOR       FAIR      28   9  43 E5        30.07S WCI  23
$$
MNZ071>073-080-081-089-090-097-098-160700-
   Southwest Minnesota

CITY           SKY/WX    TMP DP  RH WIND       PRES   REMARKS
MONTEVIDEO     MOCLDY    34  19  55 SE24      29.89F WCI  21
GRANITE FALLS  CLOUDY    34  18  53 E18       29.90F WCI  23
CANBY          FAIR      34  22  62 SE21      29.83F WCI  22
MARSHALL       FAIR      36  19  51 SE25G32   29.82F
REDWOOD FALLS  CLOUDY    35  18  49 E14G23    29.92F WCI  26
OLIVIA         CLOUDY    34  19  55 E17G28    29.92F WCI  23
PIPESTONE      FAIR      36  25  64 SE16G25   29.77S
WINDOM         MOCLDY    34  21  60 E21       29.87F WCI  22
WORTHINGTON    FAIR      34  19  55 SE23G29   29.83F WCI  22
JACKSON        MOCLDY    32  23  69 SE22      29.88F WCI  19
TRACY          CLOUDY    34  23  62 SE18G24   29.86F WCI  23
SLAYTON        FAIR      32  23  69 E18G32    29.81F WCI  21
$$
MNZ065>067-074>077-082>085-091>093-160700-
   South Central Minnesota

CITY           SKY/WX    TMP DP  RH WIND       PRES   REMARKS
MANKATO        CLOUDY    34  18  51 SE18      29.99F WCI  23
NEW ULM        FAIR      34  19  55 E14G23    29.95F WCI  24
ST JAMES       FAIR      34  21  60 E15       29.94F WCI  24
FAIRMONT       FAIR      32  19  59 SE18      29.94F WCI  20
GLENCOE        CLOUDY    35  15  45 E12       30.00S WCI  26
FARIBAULT      CLOUDY    36  16  44 E10G16    30.03S
OWATONNA       MOCLDY    34  19  55 E13G20    30.01F WCI  25
WASECA         CLOUDY    34  23  64 E14       30.01F WCI  24
ALBERT LEA     MOCLDY    34  19  55 SE14      30.00F WCI  24
$$
MNZ078>079-086>088-094>096-160700-
   Southeast Minnesota

CITY           SKY/WX    TMP DP  RH WIND       PRES   REMARKS
ROCHESTER      CLOUDY    31  19  61 SE13      30.05F WCI  21
6HR MIN TEMP:  28; 6HR MAX TEMP:  33;

RED WING       CLOUDY    36  16  44 SE12      30.07F
STANTON        CLOUDY    34  17  48 SE9       30.03F WCI  27
DODGE CENTER   MOCLDY    34  21  60 SE13      30.03F WCI  25
WINONA         FAIR      34  21  60 SE7       30.13S WCI  28
AUSTIN         CLOUDY    30  21  69 SE13      30.02F WCI  20
PRESTON        MOCLDY    31  19  60 SE9       30.07F WCI  23
$$
ABBREVIATIONS USED IN REMARKS
   TC - TEMPERATURES IN CELSIUS
  WCI - WIND CHILL INDEX
   HX - HEAT INDEX
  VSB - VISIBILITY
$$



USA.gov is the U.S. government's official web portal to all federal, state and local government web resources and services.